GEESAT 6-08

导读

GEESAT 6-08是中国于2025年9月24日发射的卫星,属于吉利控股集团旗下GEESATCOM低轨卫星物联网星座。该次发射是吉利星座一期部署的第六次任务,完成一期建设后,在轨卫星总数达到64颗,星座可实现除两极外全球全覆盖,为各类场景提供可靠的实时物联网通信服务。

Basic Information
目录编号:
65720
目录名称:
GEESAT 6-08
国际标识:
2025-214J
轨道中心:
EARTH
卫星名称:
GEESAT 6-08
卫星全名:
GEESAT 6-08
卫星状态:
在轨 (已飞行352 天)
发射日期:
2025-09-24 UTC
国别 :
中国 (CN)
星等 :
--
This satellite is enrolled in the Space Conjunction Data Service (SCDS) and the current flight risk assessment level is: No High Risk
Orbit Information
数据来源 国际轨道数据 AOE轨道数据
星历时间 2026-09-11T09:15:06+0800
17小时前
查看轨道信息
2026-09-10T06:00:00+0800
1天前
查看轨道信息
半长轴 6996.173km 6996.21km
偏心率 0.0009507 0.0006948
轨道倾角 49.991° 49.988°
近地点辐角 187.177° 174.742°
升交点赤经 270.558° 275.823°
平近点角 172.903° 236.453°
近地点 611.384km 613.212km
远地点 624.688km 622.934km
周期 97.062分钟 97.063分钟
每日圈数 14.835834 14.835717
Detailed Information
使用方式:
暂无
2D Orbit Map
3D Orbit Map
Orbit Altitude Analysis Chart
Orbit Inclination Analysis Chart
Orbit Comprehensive Analysis Chart
View Comprehensive Chart
Conjunction Data List
Event ID Objects TCA Miss Dist (km) Collision Risk Probability Collision Risk Index (CRI) Action
CDM_260912-050803-779306-572023
2026-09-12T
05:08:36+0000
2.563 km
极远距离
1.462102E-6 低风险 0.38
Miss Distance Evolution Trend with All Objects
Collision Probability Evolution Trend with All Objects